Location: Rodanthe
(35.5920°N, 75.4670°W)
Time: 23:29:03
(UTC-04:00)

ISS - All Passes

Search period start: 24 June 2017 00:00
Search period end: 04 July 2017 00:00
Orbit: 401 x 408 km, 51.6° (Epoch: 25 June)

Date Brightness Start Highest point End Pass type
(mag) Time Alt. Az. Time Alt. Az. Time Alt. Az.
24 Jun - 08:01:06 10° SSE 08:02:46 13° SE 08:04:26 10° E daylight
24 Jun - 09:35:46 10° WSW 09:38:56 46° NW 09:42:07 10° NE daylight
24 Jun - 16:05:54 10° NW 16:09:07 48° NE 16:12:19 10° ESE daylight
24 Jun - 17:43:40 10° W 17:45:16 13° SW 17:46:51 10° SSW daylight
25 Jun - 08:43:28 10° SW 08:46:43 82° SE 08:50:01 10° NE daylight
25 Jun - 10:21:50 10° WNW 10:23:35 14° NNW 10:25:20 10° N daylight
25 Jun - 15:13:58 10° NNW 15:16:49 26° NE 15:19:39 10° E daylight
25 Jun - 16:50:26 10° WNW 16:53:16 26° SW 16:56:04 10° S daylight
26 Jun - 07:51:35 10° SSW 07:54:36 36° SE 07:57:38 10° ENE daylight
26 Jun - 09:28:35 10° W 09:31:10 21° NNW 09:33:45 10° NNE daylight
26 Jun - 14:22:15 10° NNW 14:24:26 16° NNE 14:26:36 10° ENE daylight
26 Jun - 15:57:55 10° NW 16:01:10 58° SW 16:04:23 10° SE daylight
27 Jun - 07:00:19 10° S 07:02:33 17° SE 07:04:47 10° E daylight
27 Jun - 08:35:45 10° WSW 08:38:49 36° NW 08:41:53 10° NNE daylight
27 Jun - 13:31:01 10° N 13:31:57 11° NNE 13:32:52 10° NE daylight
27 Jun - 15:05:42 10° NW 15:08:58 64° NE 15:12:13 10° ESE daylight
28 Jun - 07:43:17 10° SW 07:46:33 76° NW 07:49:50 10° NE daylight
28 Jun - 09:22:14 10° NW 09:23:31 12° NNW 09:24:47 10° N daylight
28 Jun - 14:13:40 10° NNW 14:16:41 32° NE 14:19:40 10° ESE daylight
28 Jun - 15:50:29 10° W 15:53:01 20° SW 15:55:31 10° S daylight
29 Jun - 06:51:12 10° SSW 06:54:21 48° SE 06:57:31 10° ENE daylight
29 Jun - 08:28:42 10° WNW 08:31:01 18° NNW 08:33:20 10° NNE daylight
29 Jun - 13:21:50 10° NNW 13:24:17 19° NNE 13:26:44 10° ENE daylight
29 Jun - 14:57:45 10° WNW 15:00:54 43° SW 15:04:02 10° SSE daylight
30 Jun - 05:59:38 10° S 06:02:14 22° SE 06:04:51 10° ENE daylight
30 Jun - 07:35:42 10° W 07:38:36 29° NW 07:41:31 10° NNE daylight
30 Jun - 12:30:18 10° N 12:31:47 12° NNE 12:33:18 10° NE daylight
30 Jun - 14:05:25 10° NW 14:08:42 84° NE 14:11:59 10° SE daylight
01 Jul - 05:09:22 10° SE 05:10:11 11° SE 05:11:00 10° ESE visible
01 Jul - 06:43:03 10° WSW 06:46:16 57° NW 06:49:30 10° NE daylight
01 Jul - 08:22:51 10° NNW 08:23:20 10° NNW 08:23:49 10° NNW daylight
01 Jul - 13:13:17 10° NW 13:16:24 40° NE 13:19:32 10° ESE daylight
01 Jul - 14:50:32 10° W 14:52:38 16° SW 14:54:43 10° SSW daylight
02 Jul - 05:50:47 10° SW 05:54:00 64° SE 05:57:15 10° NE daylight
02 Jul - 07:28:45 10° WNW 07:30:46 15° NNW 07:32:47 10° N daylight
02 Jul - 12:21:20 10° NNW 12:24:00 22° NNE 12:26:41 10° E daylight
02 Jul - 13:57:32 10° WNW 14:00:31 32° SW 14:03:30 10° SSE daylight
03 Jul - 04:58:58 10° SSW 05:01:50 29° SE 05:04:41 10° ENE visible
03 Jul - 06:35:33 10° W 06:38:17 24° NNW 06:41:02 10° NNE daylight
03 Jul - 11:29:37 10° N 11:31:30 14° NNE 11:33:24 10° ENE daylight
03 Jul - 13:05:02 10° NW 13:08:19 74° SW 13:11:35 10° SE daylight
